• In Denmark
  • List of Countries
  • For 7 days
  • Water Temperature
  • Satellite Maps
  • Weather Map
  • Weather Widgets
  • user-avatar
    Login

    Hourly Weather Tuzla

    Today, 11 December, Monday

    Time Temperature Precipitation Wind Pressure Humidity
    00:00 +1°C° 0 mm 5 mps 716 mmHg 74%
    01:00 +2°C° 0 mm 7 mps 716 mmHg 76%
    02:00 +3°C° 0 mm 7 mps 716 mmHg 75%
    03:00 +3°C° 0 mm 7 mps 716 mmHg 74%
    04:00 +4°C° 0 mm 7 mps 715 mmHg 73%
    05:00 +4°C° 0 mm 7 mps 715 mmHg 74%
    06:00 +4°C° 0 mm 6 mps 715 mmHg 75%
    07:00 +5°C° 0 mm 6 mps 715 mmHg 76%
    08:00 +7°C° 0 mm 6 mps 715 mmHg 75%
    09:00 +7°C° 0 mm 6 mps 715 mmHg 75%
    10:00 +8°C° 0 mm 6 mps 715 mmHg 74%
    11:00 +9°C° 0 mm 6 mps 715 mmHg 73%
    12:00 +9°C° 0 mm 6 mps 715 mmHg 72%
    13:00 +9°C° 0 mm 7 mps 715 mmHg 71%
    14:00 +9°C° 0 mm 6 mps 715 mmHg 72%
    15:00 +9°C° 0 mm 6 mps 715 mmHg 73%
    16:00 +8°C° 0 mm 6 mps 715 mmHg 74%
    17:00 +8°C° 0 mm 6 mps 716 mmHg 74%
    18:00 +8°C° 0 mm 7 mps 716 mmHg 74%
    19:00 +9°C° 0 mm 7 mps 716 mmHg 73%
    20:00 +9°C° 0 mm 7 mps 716 mmHg 73%
    21:00 +9°C° 0 mm 7 mps 716 mmHg 74%
    22:00 +9°C° 0 mm 7 mps 716 mmHg 74%
    23:00 +9°C° 0 mm 7 mps 717 mmHg 74%

    Tomorrow, 12 December, Tuesday

    Time Temperature Precipitation Wind Pressure Humidity
    00:00 +9°C° 0 mm 7 mps 717 mmHg 74%
    01:00 +9°C° 0 mm 7 mps 717 mmHg 74%
    02:00 +10°C° 0 mm 7 mps 717 mmHg 74%
    03:00 +10°C° 0 mm 7 mps 717 mmHg 74%
    04:00 +10°C° 0 mm 7 mps 717 mmHg 73%
    05:00 +10°C° 0 mm 7 mps 718 mmHg 74%
    06:00 +10°C° 0 mm 7 mps 718 mmHg 74%
    07:00 +10°C° 0 mm 7 mps 718 mmHg 74%
    08:00 +10°C° 0 mm 6 mps 719 mmHg 72%
    09:00 +11°C° 0 mm 6 mps 719 mmHg 70%
    10:00 +13°C° 0 mm 6 mps 719 mmHg 69%
    11:00 +13°C° 0 mm 6 mps 719 mmHg 67%
    12:00 +13°C° 0 mm 5 mps 719 mmHg 65%
    13:00 +14°C° 0 mm 5 mps 719 mmHg 63%
    14:00 +13°C° 0 mm 5 mps 720 mmHg 67%
    15:00 +12°C° 0 mm 4 mps 720 mmHg 71%
    16:00 +11°C° 0 mm 4 mps 720 mmHg 75%
    17:00 +10°C° 0 mm 4 mps 720 mmHg 76%
    18:00 +10°C° 0 mm 4 mps 720 mmHg 76%
    19:00 +9°C° 0 mm 5 mps 720 mmHg 76%
    20:00 +9°C° 0 mm 5 mps 720 mmHg 76%
    21:00 +9°C° 0 mm 5 mps 720 mmHg 76%
    22:00 +10°C° 0 mm 4 mps 721 mmHg 76%
    23:00 +10°C° 0 mm 4 mps 721 mmHg 76%

    Day after tomorrow, 13 December, Wednesday

    Time Temperature Precipitation Wind Pressure Humidity
    00:00 +10°C° 0 mm 4 mps 721 mmHg 76%
    01:00 +10°C° 0 mm 4 mps 721 mmHg 77%
    02:00 +10°C° 0.3 mm 4 mps 721 mmHg 80%
    03:00 +9°C° 0.3 mm 3 mps 722 mmHg 83%
    04:00 +8°C° 0.3 mm 3 mps 722 mmHg 86%
    05:00 +7°C° 1 mm 3 mps 722 mmHg 88%
    06:00 +6°C° 1 mm 2 mps 722 mmHg 89%
    07:00 +5°C° 1 mm 2 mps 723 mmHg 91%
    08:00 +4°C° 1.3 mm 2 mps 723 mmHg 91%
    09:00 +4°C° 1.3 mm 2 mps 723 mmHg 91%
    10:00 +4°C° 1.3 mm 2 mps 724 mmHg 91%
    11:00 +3°C° 1.3 mm 2 mps 724 mmHg 91%
    12:00 +3°C° 1.3 mm 2 mps 723 mmHg 91%
    13:00 +4°C° 1.3 mm 1 mps 723 mmHg 92%
    14:00 +3°C° 1 mm 1 mps 723 mmHg 93%
    15:00 +3°C° 1 mm 1 mps 723 mmHg 93%
    16:00 +2°C° 1 mm 0 mps 723 mmHg 94%
    17:00 +2°C° 0.2 mm 0 mps 723 mmHg 94%
    18:00 +3°C° 0.2 mm 1 mps 722 mmHg 94%
    19:00 +2°C° 0.2 mm 1 mps 722 mmHg 94%
    20:00 +2°C° 0 mm 1 mps 722 mmHg 93%
    21:00 +2°C° 0 mm 1 mps 722 mmHg 92%
    22:00 +2°C° 0 mm 1 mps 722 mmHg 91%
    23:00 +2°C° 0 mm 1 mps 722 mmHg 91%

    14 December, Thursday

    Time Temperature Precipitation Wind Pressure Humidity
    00:00 +2°C° 0 mm 1 mps 722 mmHg 90%
    01:00 +2°C° 0 mm 1 mps 721 mmHg 90%
    02:00 +1°C° 0 mm 2 mps 721 mmHg 89%
    03:00 +1°C° 0 mm 2 mps 721 mmHg 89%
    04:00 +1°C° 0 mm 2 mps 721 mmHg 89%
    05:00 +1°C° 0 mm 2 mps 721 mmHg 88%
    06:00 +1°C° 0 mm 2 mps 721 mmHg 88%
    07:00 +1°C° 0 mm 2 mps 721 mmHg 88%
    08:00 +1°C° 0 mm 3 mps 720 mmHg 86%
    09:00 +2°C° 0 mm 3 mps 720 mmHg 85%
    10:00 +4°C° 0 mm 3 mps 720 mmHg 83%
    11:00 +5°C° 0 mm 3 mps 720 mmHg 82%
    12:00 +5°C° 0 mm 4 mps 720 mmHg 80%
    13:00 +6°C° 0 mm 4 mps 719 mmHg 79%
    14:00 +6°C° 0.1 mm 4 mps 719 mmHg 80%
    15:00 +5°C° 0.1 mm 4 mps 719 mmHg 81%
    16:00 +5°C° 0.1 mm 4 mps 718 mmHg 82%
    17:00 +5°C° 0 mm 4 mps 718 mmHg 82%
    18:00 +5°C° 0 mm 4 mps 718 mmHg 81%
    19:00 +5°C° 0 mm 4 mps 718 mmHg 81%
    20:00 +5°C° 0 mm 4 mps 717 mmHg 82%
    21:00 +5°C° 0 mm 4 mps 717 mmHg 82%
    22:00 +5°C° 0 mm 4 mps 717 mmHg 83%
    23:00 +5°C° 0 mm 4 mps 717 mmHg 84%

    15 December, Friday

    Time Temperature Precipitation Wind Pressure Humidity
    00:00 +5°C° 0 mm 4 mps 716 mmHg 85%
    01:00 +5°C° 0 mm 4 mps 716 mmHg 85%
    02:00 +5°C° 0 mm 3 mps 716 mmHg 86%
    03:00 +5°C° 0 mm 3 mps 716 mmHg 86%
    04:00 +5°C° 0 mm 3 mps 715 mmHg 87%
    05:00 +5°C° 0 mm 3 mps 715 mmHg 86%
    06:00 +7°C° 0 mm 3 mps 715 mmHg 86%
    07:00 +7°C° 0 mm 3 mps 715 mmHg 86%
    08:00 +7°C° 0.1 mm 3 mps 715 mmHg 85%
    09:00 +8°C° 0.1 mm 3 mps 714 mmHg 84%
    10:00 +9°C° 0.1 mm 3 mps 714 mmHg 83%
    11:00 +8°C° 0.1 mm 4 mps 713 mmHg 80%
    12:00 +10°C° 0.1 mm 4 mps 712 mmHg 77%
    13:00 +10°C° 0.1 mm 5 mps 711 mmHg 75%
    14:00 +10°C° 0.1 mm 6 mps 710 mmHg 75%
    15:00 +10°C° 0.1 mm 6 mps 710 mmHg 74%
    16:00 +9°C° 0.1 mm 6 mps 709 mmHg 74%
    17:00 +10°C° 0.2 mm 7 mps 709 mmHg 74%
    18:00 +10°C° 0.2 mm 7 mps 710 mmHg 74%
    19:00 +10°C° 0.2 mm 8 mps 710 mmHg 73%
    20:00 +10°C° 0.1 mm 7 mps 710 mmHg 74%
    21:00 +9°C° 0.1 mm 6 mps 710 mmHg 75%
    22:00 +9°C° 0.1 mm 6 mps 711 mmHg 76%
    23:00 +9°C° 0.1 mm 5 mps 711 mmHg 78%

    16 December, Saturday

    Time Temperature Precipitation Wind Pressure Humidity
    00:00 +8°C° 0.1 mm 4 mps 711 mmHg 80%
    01:00 +9°C° 0.1 mm 3 mps 711 mmHg 82%
    02:00 +9°C° 0.7 mm 2 mps 711 mmHg 85%
    03:00 +8°C° 0.7 mm 2 mps 710 mmHg 87%
    04:00 +8°C° 0.7 mm 2 mps 710 mmHg 89%
    05:00 +9°C° 1.4 mm 1 mps 710 mmHg 91%
    06:00 +9°C° 1.4 mm 1 mps 711 mmHg 92%
    07:00 +8°C° 1.4 mm 1 mps 711 mmHg 94%
    08:00 +7°C° 1.6 mm 2 mps 711 mmHg 94%
    09:00 +7°C° 1.6 mm 2 mps 712 mmHg 93%
    10:00 +6°C° 1.6 mm 2 mps 712 mmHg 93%
    11:00 +6°C° 0.7 mm 2 mps 712 mmHg 92%
    12:00 +6°C° 0.7 mm 2 mps 713 mmHg 91%
    13:00 +6°C° 0.7 mm 2 mps 713 mmHg 91%
    14:00 +5°C° 1.6 mm 2 mps 713 mmHg 91%
    15:00 +5°C° 1.6 mm 2 mps 714 mmHg 91%
    16:00 +4°C° 1.6 mm 2 mps 714 mmHg 91%
    17:00 +4°C° 1 mm 2 mps 715 mmHg 90%
    18:00 +3°C° 1 mm 2 mps 716 mmHg 90%
    19:00 +3°C° 1 mm 2 mps 716 mmHg 90%
    20:00 +2°C° 0.6 mm 2 mps 717 mmHg 90%
    21:00 +3°C° 0.6 mm 1 mps 717 mmHg 91%
    22:00 +3°C° 0.6 mm 1 mps 717 mmHg 91%
    23:00 +2°C° 0.9 mm 2 mps 717 mmHg 91%
    Show more